TimeMDT,TemperatureF,Dew PointF,Humidity,Sea Level PressureIn,VisibilityMPH,Wind Direction,Wind SpeedMPH,Gust SpeedMPH,PrecipitationIn,Events,Conditions,WindDirDegrees,DateUTC
12:53 AM,37.0,14.0,39,30.09,10.0,Calm,Calm,-,N/A,,Clear,0,2012-10-18 06:53:00
1:53 AM,39.0,12.9,34,30.10,10.0,East,4.6,-,N/A,,Clear,90,2012-10-18 07:53:00
2:53 AM,37.0,14.0,39,30.13,10.0,East,5.8,-,N/A,,Clear,80,2012-10-18 08:53:00
3:53 AM,37.9,14.0,38,30.13,10.0,Calm,Calm,-,N/A,,Clear,0,2012-10-18 09:53:00
4:53 AM,36.0,15.1,43,30.14,10.0,East,3.5,-,N/A,,Clear,100,2012-10-18 10:53:00
5:53 AM,33.1,14.0,46,30.18,10.0,Calm,Calm,-,N/A,,Clear,0,2012-10-18 11:53:00
6:53 AM,33.1,15.1,48,30.21,10.0,Calm,Calm,-,N/A,,Clear,0,2012-10-18 12:53:00
7:53 AM,30.0,15.1,54,30.25,10.0,Calm,Calm,-,N/A,,Clear,0,2012-10-18 13:53:00
8:53 AM,39.9,16.0,38,30.24,10.0,SE,5.8,-,N/A,,Clear,140,2012-10-18 14:53:00
9:53 AM,46.9,17.1,30,30.23,10.0,SSE,3.5,-,N/A,,Clear,160,2012-10-18 15:53:00
10:53 AM,51.1,15.1,24,30.21,10.0,Variable,3.5,-,N/A,,Clear,0,2012-10-18 16:53:00
11:53 AM,54.0,12.0,19,30.22,10.0,Calm,Calm,-,N/A,,Clear,0,2012-10-18 17:53:00
1:53 PM,60.1,10.0,14,30.14,10.0,Calm,Calm,-,N/A,,Clear,0,2012-10-18 19:53:00
2:53 PM,62.1,10.9,13,30.12,10.0,North,3.5,-,N/A,,Clear,350,2012-10-18 20:53:00
3:53 PM,63.0,12.0,14,30.11,10.0,SW,3.5,-,N/A,,Clear,220,2012-10-18 21:53:00
4:53 PM,63.0,12.9,14,30.10,10.0,NW,4.6,-,N/A,,Clear,310,2012-10-18 22:53:00
5:53 PM,62.1,12.0,14,30.11,10.0,NNW,6.9,-,N/A,,Clear,340,2012-10-18 23:53:00
6:53 PM,57.9,12.9,17,30.13,10.0,North,8.1,-,N/A,,Clear,360,2012-10-19 00:53:00
7:53 PM,53.1,14.0,21,30.17,10.0,WNW,4.6,-,N/A,,Clear,290,2012-10-19 01:53:00
8:53 PM,50.0,14.0,24,30.14,10.0,ESE,3.5,-,N/A,,Clear,110,2012-10-19 02:53:00
9:53 PM,48.0,15.1,27,30.13,10.0,East,6.9,-,N/A,,Clear,90,2012-10-19 03:53:00
10:53 PM,46.0,16.0,30,30.13,10.0,ENE,4.6,-,N/A,,Clear,60,2012-10-19 04:53:00
11:53 PM,42.1,15.1,34,30.14,10.0,ESE,5.8,-,N/A,,Clear,110,2012-10-19 05:53:00